Weather History for Valparaiso, IN

Change the Weather History Date:

Monday, March 31, 2014

  Actual Average Record
Temperature  
Mean Temperature 52 °F 43 °F  
Max Temperature 66 °F 53 °F 83 °F (1981)
Min Temperature 37 °F 34 °F 12 °F (1923)
Degree Days  
Heating Degree Days 13 22  
Month to date heating degree days 1000 845  
Since 1 July heating degree days 6449 5577  
Cooling Degree Days 0 0  
Month to date cooling degree days 0 0  
Year to date cooling degree days 0 0  
Moisture  
Dew Point 31 °F    
Average Humidity 48    
Maximum Humidity 73    
Minimum Humidity 25    
Precipitation  
Precipitation T in 0.09 in 1.22 in (1926)
Month to date precipitation 0.79 2.48  
Year to date precipitation 3.42 5.65  
Sea Level Pressure  
Sea Level Pressure 29.99 in    
Wind  
Wind Speed 13 mph (SSE)    
Max Wind Speed 24 mph    
Max Gust Speed 32 mph    
Visibility 10 miles    
Events Rain    
T = Trace of Precipitation, MM = Missing Value Source: NWS Daily Summary

Daily Weather History Graph

Daily Weather History Graph

Search for Another Location

Airport:

Trip Planner

Search our weather history database for the weather conditions in past years. The results will help you decide how hot, cold, wet, or windy it might be!

Date:

Astronomy

Mar. 31, 2014 Rise Set
Actual Time 6:32 AM CDT 7:12 PM CDT
Civil Twilight 6:04 AM CDT 7:40 PM CDT
Nautical Twilight 5:31 AM CDT 8:13 PM CDT
Astronomical Twilight 4:57 AM CDT 8:47 PM CDT
Moon 6:55 AM CDT (3/31) 8:31 PM CDT (3/31)
Length of Visible Light 13h 35m
Length of Day
12h 39m
New Moon, 1% of the Moon is Illuminated
Mar 31
New Moon
Apr 7
First Quarter
Apr 15
Full
Apr 22
Last Quarter
Apr 29
New

Hourly Weather History & Observations

Time (CDT) Temp. Windchill Dew Point Humidity Pressure Visibility Wind Dir Wind Speed Gust Speed Precip Events Conditions
12:53 AM 41.0 °F 36.4 °F 28.9 °F 62% 30.10 in 10.0 mi South 6.9 mph - N/A   Clear
1:53 AM 39.9 °F 35.1 °F 28.9 °F 65% 30.10 in 10.0 mi SSE 6.9 mph - N/A   Clear
2:53 AM 39.9 °F 35.8 °F 28.9 °F 65% 30.10 in 10.0 mi South 5.8 mph - N/A   Clear
3:53 AM 37.9 °F 33.5 °F 28.9 °F 70% 30.09 in 10.0 mi South 5.8 mph - N/A   Clear
4:53 AM 37.0 °F 31.6 °F 28.9 °F 73% 30.10 in 10.0 mi SE 6.9 mph - N/A   Clear
5:53 AM 37.9 °F 31.5 °F 28.9 °F 70% 30.10 in 10.0 mi SSE 9.2 mph - N/A   Clear
6:53 AM 37.9 °F 31.5 °F 30.0 °F 73% 30.10 in 10.0 mi SSE 9.2 mph - N/A   Clear
7:53 AM 41.0 °F 34.7 °F 30.9 °F 67% 30.10 in 10.0 mi SE 10.4 mph - N/A   Clear
8:53 AM 45.0 °F 39.7 °F 32.0 °F 60% 30.09 in 10.0 mi SSE 10.4 mph 19.6 mph N/A   Clear
9:53 AM 51.1 °F - 35.1 °F 54% 30.09 in 10.0 mi SSE 10.4 mph - N/A   Clear
10:53 AM 54.0 °F - 32.0 °F 43% 30.08 in 10.0 mi South 17.3 mph 25.3 mph N/A   Clear
11:53 AM 57.9 °F - 30.9 °F 36% 30.06 in 10.0 mi South 18.4 mph 24.2 mph N/A   Clear
12:53 PM 61.0 °F - 30.0 °F 31% 30.04 in 10.0 mi South 18.4 mph 26.5 mph N/A   Clear
1:53 PM 64.0 °F - 28.9 °F 27% 29.99 in 10.0 mi SSE 17.3 mph 27.6 mph N/A   Clear
2:53 PM 64.9 °F - 28.0 °F 25% 29.96 in 10.0 mi SSE 20.7 mph 31.1 mph N/A   Clear
3:53 PM 63.0 °F - 28.9 °F 28% 29.94 in 10.0 mi South 16.1 mph 26.5 mph N/A   Clear
4:53 PM 62.1 °F - 32.0 °F 32% 29.90 in 10.0 mi SSE 16.1 mph 23.0 mph N/A   Clear
5:53 PM 61.0 °F - 34.0 °F 36% 29.84 in 10.0 mi SSE 16.1 mph 24.2 mph N/A   Clear
6:53 PM 60.1 °F - 32.0 °F 35% 29.83 in 10.0 mi SE 13.8 mph 25.3 mph N/A   Clear
7:53 PM 59.0 °F - 32.0 °F 36% 29.84 in 10.0 mi SSE 15.0 mph 21.9 mph N/A   Overcast
8:53 PM 57.9 °F - 33.1 °F 39% 29.85 in 10.0 mi SSE 15.0 mph 23.0 mph 0.00 in   Overcast
9:53 PM 57.9 °F - 33.1 °F 39% 29.83 in 10.0 mi SE 13.8 mph - 0.00 in   Overcast
10:53 PM 55.9 °F - 35.1 °F 45% 29.83 in 10.0 mi SE 12.7 mph - 0.00 in Rain Light Rain
11:53 PM 55.0 °F - 37.0 °F 51% 29.81 in 10.0 mi SSE 12.7 mph 19.6 mph 0.00 in Rain Light Rain